星链-6208 (STARLINK-6208 )

导读

STARLINK-6208是美国SpaceX星链互联网星座中的卫星,于2023年6月12日发射入轨,属于星链项目扩容的一部分。该卫星旨在为全球提供低延迟、高速率的卫星互联网服务,尤其覆盖地面网络难以抵达的偏远区域,服务全球互联互通需求,是SpaceX大规模星座组网进程中的一颗组网卫星。

Basic Information
目录编号:
56895
目录名称:
STARLINK-6208
国际标识:
2023-083V
轨道中心:
EARTH
卫星名称:
星链-6208
卫星全名:
星链-6208 (STARLINK-6208 )
卫星状态:
在轨 (已飞行1180 天)
发射日期:
2023-06-12 UTC
国别 :
美国 (US)
星等 :
--
Orbit Information
数据来源 国际轨道数据 AOE轨道数据
星历时间 2026-09-04T12:16:08+0800
7小时前
查看轨道信息
2026-09-03T23:00:00+0800
20小时前
查看轨道信息
半长轴 6861.197km 6861.184km
偏心率 0.0001264 0.0001319
轨道倾角 43.002° 43.000°
近地点辐角 246.653° 241.226°
升交点赤经 160.957° 164.080°
平近点角 113.419° 314.901°
近地点 482.192km 482.142km
远地点 483.928km 483.952km
周期 94.267分钟 94.267分钟
每日圈数 15.275766 15.27581
Detailed Information
固有亮度:
5
最大亮度:
2.4
卫星平台:
Starlink v1.5
覆盖范围:
全球
运营商:
太空探索技术公司
运营商所在国:
美国
制造商(研发单位):
太空探索技术公司
制造商所在国:
美国
使用方式:
暂无
Satellite Introduction
星链(Starlink)计划是由太空探索技术公司(SpaceX)提出的一个巨型低轨卫星互联网星座项目,计划在2019年至2024年间在太空搭建由约1.2万颗卫星组成的“星链”网络,其中1584颗将部署在地球上空550千米处的近地轨道,并从2020年开始工作。该卫星仍在工作。
2D Orbit Map
3D Orbit Map
Orbit Altitude Analysis Chart
Orbit Inclination Analysis Chart
Orbit Comprehensive Analysis Chart
View Comprehensive Chart
Conjunction Data List
Event ID Objects TCA Miss Dist (km) Collision Risk Probability Collision Risk Index (CRI) Action
CDM_260905-113005-689506-434821
2026-09-05T
11:30:51+0000
1.884 km
极远距离
2.970113E-6 低风险 0.44
CDM_260905-095405-099305-689522
2026-09-05T
09:54:09+0000
2.780 km
极远距离
1.431418E-6 低风险 0.38